Regional Weather Roundup
Issued by NWS Memphis, TN

Home | Current Version | Previous Version | Text Only | Print | Product List | Glossary On
Versions: 1 2 3 4 5 6 7 8 9 10 11 12 13 14 15 16 17 18 19 20 21 22 23 24 25 26 27 28 29 30 31 32 33 34 35 36 37 38 39 40 41 42 43 44 45 46 47 48 49 50
000
ASUS44 KMEG 220000
RWRMEG
MEMPHIS CWA HOURLY WEATHER ROUNDUP
NATIONAL WEATHER SERVICE MEMPHIS TN
700 PM CDT MON AUG 21 2017

...WEST TENNESSEE...

CITY           SKY/WX    TMP DP  RH WIND       PRES   REMARKS
MEMPHIS INTL   PTCLDY    89  74  60 S5        30.05F HX  98
6HR MIN TEMP:  84; 6HR MAX TEMP:  95;

NWS MEMPHIS      N/A     88 N/A N/A MISG        N/A
JACKSON        CLEAR     88  78  72 SW3       30.07R HX 101
6HR MIN TEMP:  85; 6HR MAX TEMP:  93;

DYERSBURG      CLEAR     88  79  74 CALM      30.06S HX 103
6HR MIN TEMP:  84; 6HR MAX TEMP:  93;



...EASTERN ARKANSAS...

CITY           SKY/WX    TMP DP  RH WIND       PRES   REMARKS
JONESBORO      CLEAR     88  76  67 SW7       30.04S HX  99
6HR MIN TEMP:  86; 6HR MAX TEMP:  92;

WEST MEMPHIS   CLOUDY    88  79  74 CALM      30.03F HX 103
6HR MIN TEMP:  84; 6HR MAX TEMP:  94;

NEWPORT        CLEAR     88  75  65 S6        30.05S HX  97
6HR MIN TEMP:  86; 6HR MAX TEMP:  92;

WALNUT RIDGE   CLEAR     88  75  66 CALM      30.04S HX  97
6HR MIN TEMP:  86; 6HR MAX TEMP:  91;

BLYTHEVILLE    PTCLDY    89  78  70 SW3       30.05S HX 103
6HR MIN TEMP:  87; 6HR MAX TEMP:  93;

SEARCY         CLEAR     89  78  70 MISG      30.06S HX 103
6HR MIN TEMP:  86; 6HR MAX TEMP:  93;

PINE BLUFF     CLEAR     89  74  60 SW5       30.04F HX  98
6HR MIN TEMP:  88; 6HR MAX TEMP:  92;

MONTICELLO     CLOUDY    90  75  61 S3        30.05S HX 100
6HR MIN TEMP:  86; 6HR MAX TEMP:  94;



...NORTH MISSISSIPPI...

CITY           SKY/WX    TMP DP  RH WIND       PRES   REMARKS
TUPELO         PTCLDY    88  72  58 SE7       30.07R HX  94
6HR MIN TEMP:  88; 6HR MAX TEMP:  95;

OLIVE BRANCH   PTCLDY   N/A N/A N/A CALM      30.06F
TUNICA           N/A     88  77  70 E5        30.05S HX 100
CLARKSDALE       N/A     90  81  74 E6        30.05R HX 108
GREENWOOD      CLOUDY    84  76  76 SE3       30.06F HX  93
6HR MIN TEMP:  79; 6HR MAX TEMP:  95; 6HR PCP:  0.03;

COLUMBUS       CLEAR     86  79  79 S3        30.06F HX  99
6HR MIN TEMP:  84; 6HR MAX TEMP:  94;

STARKVILLE     CLOUDY    86  72  62 E8        30.09R HX  92
GOLDEN TRIANGL MOCLDY    82  66  57 CALM      30.03S


...SOUTHEAST MISSOURI...

CITY           SKY/WX    TMP DP  RH WIND       PRES   REMARKS
KENNETT        CLEAR     90  79  70 SW6       30.04R HX 105
MALDEN         CLEAR     88  72  58 W3        30.06S HX  94
WEST PLAINS    CLEAR     86  71  60 S8        30.09S HX  91
6HR MIN TEMP:  84; 6HR MAX TEMP:  89;

POPLAR BLUFF   CLEAR     87  76  69 S6        30.04S HX  97
6HR MIN TEMP:  84; 6HR MAX TEMP:  91;

CAPE GIRARDEAU CLEAR     86  76  71 SW6       30.04R HX  96
6HR MIN TEMP:  83; 6HR MAX TEMP:  92;



...NORTHWEST ALABAMA...

CITY           SKY/WX    TMP DP  RH WIND       PRES   REMARKS
MUSCLE SHOALS  CLEAR     87  72  60 SE3       30.10R HX  93
6HR MIN TEMP:  85; 6HR MAX TEMP:  94;



...MIDDLE TENNESSEE...

CITY           SKY/WX    TMP DP  RH WIND       PRES   REMARKS
NASHVILLE      PTCLDY    89  68  49 S5        30.10R HX  93
6HR MIN TEMP:  87; 6HR MAX TEMP:  95;

CLARKSVILLE    CLEAR     88  72  58 SW3       30.09R HX  94
6HR MIN TEMP:  85; 6HR MAX TEMP:  91;



...WESTERN KENTUCKY...

CITY           SKY/WX    TMP DP  RH WIND       PRES   REMARKS
PADUCAH        CLEAR     87  75  67 S3        30.05R HX  96
6HR MIN TEMP:  86; 6HR MAX TEMP:  94;

FORT CAMPBELL  CLEAR     88  73  60 S5        30.09R HX  95
6HR MIN TEMP:  85; 6HR MAX TEMP:  91;



...CENTRAL ARKANSAS...

CITY           SKY/WX    TMP DP  RH WIND       PRES   REMARKS
LITTLE ROCK    PTCLDY    88  76  67 S7        30.04S HX  99
6HR MIN TEMP:  86; 6HR MAX TEMP:  92;



SKY/WX REPORTED AS FAIR MEANS FEW OR NO CLOUDS BELOW
12 THOUSAND FEET.





USA.gov is the U.S. government's official web portal to all federal, state and local government web resources and services.